DW9615 Home Hill AU current weather conditions

sailwx.info

Wind from 086 at 6 knots gusting 11

Air temperature 24.4° C
Dewpoint 12.4° C

Last reported at 2014-Jul-29 03:39 UTC.
Time now 2014-Jul-29 04:45 UTC

Location: S 19°40' E 147°25'.
View on Google Maps.

See reports from other nearby stations

  
Tides and Currents Weather Stations Pressure Air Temp Water Temp Dewpoint Dewpoint Depression Visibility Wind Speed Wind Dir Waves Ship Positions
date/time (UTC)wind fromknots sea level pressurealtimeterstation pressurevisibilityair tempwater tempwave heightnotes
2014-Jul-29 03:39 086 6 gusting 11 24.4
2014-Jul-29 03:24 048 6 gusting 11 24.4
2014-Jul-29 03:09 073 6 gusting 12 24.4
2014-Jul-29 02:54 093 4 gusting 12 24.4
2014-Jul-29 02:39 086 5 gusting 12 25.0
2014-Jul-29 02:24 095 5 gusting 10 26.1
2014-Jul-29 02:09 050 1 gusting 5 27.2
2014-Jul-29 01:54 163 1 gusting 6 26.7
2014-Jul-29 01:39 164 1 gusting 6 26.1
2014-Jul-29 01:24 130 0 gusting 6 26.1
2014-Jul-29 01:09 103 2 gusting 6 25.6
2014-Jul-29 00:54 185 1 gusting 4 25.0
2014-Jul-29 00:38 188 1 gusting 5 24.4
2014-Jul-29 00:23 129 0 gusting 5 23.9
2014-Jul-29 00:08 140 1 gusting 6 23.3
2014-Jul-28 23:53 203 1 gusting 6 22.8
2014-Jul-28 23:38 196 3 gusting 6 21.7
2014-Jul-28 23:23 178 2 gusting 6 21.1
2014-Jul-28 23:08 165 3 gusting 4 20.6
2014-Jul-28 22:53 174 1 gusting 3 19.4
2014-Jul-28 22:23 163 0 gusting 2 17.2
2014-Jul-28 22:08 185 15.6
2014-Jul-28 21:53 183 0 gusting 2 14.4
2014-Jul-28 21:38 143 13.3
2014-Jul-28 21:23 263 12.8
2014-Jul-28 21:08 185 12.2
2014-Jul-28 20:53 185 11.7
2014-Jul-28 20:38 185 12.2
2014-Jul-28 20:23 185 12.2
2014-Jul-28 20:08 185 12.8
2014-Jul-28 19:53 180 12.8
2014-Jul-28 19:38 164 12.2
2014-Jul-28 19:22 189 12.2
2014-Jul-28 19:07 157 12.2
2014-Jul-28 18:52 157 12.2
2014-Jul-28 18:37 157 12.2
2014-Jul-28 18:22 157 12.2
2014-Jul-28 18:07 157 12.2
2014-Jul-28 17:52 157 12.2
2014-Jul-28 17:37 157 12.8
2014-Jul-28 17:22 157 13.3
2014-Jul-28 17:07 159 13.3
2014-Jul-28 16:52 159 13.3
2014-Jul-28 16:37 158 13.3
2014-Jul-28 16:22 159 13.3
2014-Jul-28 16:07 159 13.3
2014-Jul-28 15:52 159 13.3
2014-Jul-28 15:37 112 13.3
2014-Jul-28 15:22 112 13.9
2014-Jul-28 15:07 112 13.9
2014-Jul-28 14:52 112 13.9
2014-Jul-28 14:37 112 13.9
2014-Jul-28 14:22 112 13.9
2014-Jul-28 14:07 112 14.4
2014-Jul-28 13:52 112 14.4
2014-Jul-28 13:38 112 14.4
2014-Jul-28 13:22 112 15.0
2014-Jul-28 13:07 112 15.0
2014-Jul-28 12:52 112 15.6
2014-Jul-28 12:37 112 15.6
2014-Jul-28 12:22 112 15.6
2014-Jul-28 12:07 112 16.1
2014-Jul-28 11:52 112 17.2
2014-Jul-28 11:37 112 17.8
2014-Jul-28 11:22 112 17.8
2014-Jul-28 11:07 101 18.3
2014-Jul-28 10:52 092 18.3
2014-Jul-28 10:37 094 18.3
2014-Jul-28 10:22 095 18.9
2014-Jul-28 10:07 097 19.4
2014-Jul-28 09:52 062 19.4
2014-Jul-28 09:21 100 0 gusting 3 20.0
2014-Jul-28 09:06 086 0 gusting 3 20.0
2014-Jul-28 08:51 087 1 gusting 4 20.0
2014-Jul-28 08:36 095 0 gusting 6 20.0
2014-Jul-28 08:21 079 1 gusting 4 20.6
2014-Jul-28 08:06 088 2 gusting 6 20.6
2014-Jul-28 07:51 080 2 gusting 6 21.1
2014-Jul-28 07:36 075 2 gusting 9 21.7
2014-Jul-28 07:21 102 5 gusting 11 21.7
2014-Jul-28 07:06 091 5 gusting 9 22.2
2014-Jul-28 06:51 088 3 gusting 10 22.8
2014-Jul-28 06:36 088 4 gusting 10 22.8
2014-Jul-28 06:21 086 5 gusting 9 23.3
2014-Jul-28 06:07 107 5 gusting 11 23.3
2014-Jul-28 05:51 059 6 gusting 11 23.3
2014-Jul-28 05:37 055 6 gusting 12 23.3
2014-Jul-28 05:21 074 6 gusting 12 23.9
2014-Jul-28 05:06 104 5 gusting 12 23.9
2014-Jul-28 04:51 072 6 gusting 12 23.9
2014-Jul-28 04:36 074 6 gusting 13 23.9
2014-Jul-28 04:21 080 6 gusting 13 24.4
2014-Jul-28 04:06 079 6 gusting 13 24.4
2014-Jul-28 03:51 098 5 gusting 12 24.4
2014-Jul-28 03:36 072 4 gusting 10 25.0
2014-Jul-28 03:21 101 4 gusting 11 25.0
2014-Jul-28 03:06 076 5 gusting 10 25.0
2014-Jul-28 02:51 090 3 gusting 9 25.0
2014-Jul-28 02:36 066 5 gusting 10 24.4
2014-Jul-28 02:21 156 2 gusting 9 25.0
2014-Jul-28 02:06 019 4 gusting 8 25.0
2014-Jul-28 01:51 279 2 gusting 9 24.4
2014-Jul-28 01:36 114 3 gusting 8 25.0
2014-Jul-28 01:21 117 2 gusting 10 23.9
2014-Jul-28 01:06 108 3 gusting 8 23.9
2014-Jul-28 00:51 100 4 gusting 8 23.9
2014-Jul-28 00:36 099 2 gusting 6 23.9
2014-Jul-28 00:21 116 4 gusting 8 23.3
2014-Jul-28 00:06 110 2 gusting 6 22.8
2014-Jul-27 23:51 145 1 gusting 6 22.8
2014-Jul-27 23:36 150 2 gusting 6 22.2
2014-Jul-27 23:20 114 0 gusting 6 21.7
2014-Jul-27 23:05 199 1 gusting 3 20.6
2014-Jul-27 22:50 156 1 gusting 6 19.4
2014-Jul-27 22:35 190 1 gusting 3 18.3
2014-Jul-27 22:20 236 0 gusting 2 17.8
2014-Jul-27 22:05 180 16.7
2014-Jul-27 21:50 145 15.6
2014-Jul-27 21:35 259 14.4
2014-Jul-27 21:20 254 13.9
2014-Jul-27 21:05 254 13.3
2014-Jul-27 20:50 254 12.8
2014-Jul-27 20:35 253 12.8
2014-Jul-27 20:20 227 12.8
2014-Jul-27 20:05 227 13.3
2014-Jul-27 19:50 227 12.8
2014-Jul-27 19:35 226 13.3
2014-Jul-27 19:20 227 13.3
2014-Jul-27 19:05 226 13.3
2014-Jul-27 18:50 227 13.3
2014-Jul-27 18:35 227 13.9
2014-Jul-27 18:20 158 13.9
2014-Jul-27 18:05 282 13.9
2014-Jul-27 17:50 187 13.9
2014-Jul-27 17:35 259 13.9
2014-Jul-27 17:20 259 13.9
2014-Jul-27 17:05 260 13.9
2014-Jul-27 16:50 263 14.4
2014-Jul-27 16:35 263 14.4
2014-Jul-27 16:20 266 14.4
2014-Jul-27 16:05 266 15.0
2014-Jul-27 15:50 266 15.0
2014-Jul-27 15:34 266 15.0
2014-Jul-27 15:19 264 15.6
2014-Jul-27 15:04 266 15.6
2014-Jul-27 14:49 266 16.1
2014-Jul-27 14:34 258 16.1
2014-Jul-27 14:19 258 16.1
2014-Jul-27 14:04 258 16.7
2014-Jul-27 13:49 098 17.2
2014-Jul-27 13:34 098 17.8
2014-Jul-27 13:19 098 17.8
2014-Jul-27 13:04 098 17.8
2014-Jul-27 12:49 098 18.3
2014-Jul-27 12:34 098 18.3
2014-Jul-27 12:19 098 18.3
2014-Jul-27 12:04 098 18.9
2014-Jul-27 11:49 085 19.4
2014-Jul-27 11:34 104 0 gusting 4 19.4
2014-Jul-27 11:19 109 0 gusting 4 20.0
2014-Jul-27 11:04 102 2 gusting 4 20.0
2014-Jul-27 10:49 059 1 gusting 6 20.6
2014-Jul-27 10:34 115 2 gusting 4 20.6
2014-Jul-27 10:19 105 2 gusting 6 20.6
2014-Jul-27 10:04 084 2 gusting 6 20.6
2014-Jul-27 09:49 077 2 gusting 6 20.6
2014-Jul-27 09:34 084 2 gusting 6 20.6
2014-Jul-27 09:19 072 1 gusting 5 20.6
2014-Jul-27 09:04 079 2 gusting 5 21.1
2014-Jul-27 08:49 093 1 gusting 4 21.1
2014-Jul-27 08:34 088 2 gusting 5 21.1
2014-Jul-27 08:19 066 3 gusting 7 21.7
2014-Jul-27 08:04 102 2 gusting 7 21.7
2014-Jul-27 07:49 086 2 gusting 6 22.2
2014-Jul-27 07:34 095 4 gusting 7 22.2
2014-Jul-27 07:19 076 4 gusting 8 22.8
2014-Jul-27 07:04 072 4 gusting 9 23.3
2014-Jul-27 06:49 121 5 gusting 9 23.3
2014-Jul-27 06:34 061 5 gusting 9 23.9
2014-Jul-27 06:19 079 6 gusting 12 24.4
2014-Jul-27 06:04 088 5 gusting 8 24.4
2014-Jul-27 05:49 069 3 gusting 9 25.0
2014-Jul-27 05:34 066 3 gusting 8 25.0
2014-Jul-27 05:19 097 5 gusting 8 25.0
2014-Jul-27 05:04 105 4 gusting 8 25.6
2014-Jul-27 04:49 100 5 gusting 9 25.6
2014-Jul-27 04:34 088 3 gusting 10 25.6
2014-Jul-27 04:19 113 2 gusting 11 25.6
2014-Jul-27 04:04 087 4 gusting 8 25.6